CZ-2C R/B

Last updated on Mon Sep 21 2026 00:02:09 GMT+0000 (Coordinated Universal Time)

1 52794U 22058K 26263.61374896 .00047730 00000+0 39603-3 0 9991 2 52794 50.1844 24.3988 0029933 311.9269 47.9156 15.69065414240595
UTC large
Height (km)
Speed (km/s)
/
Latitude / Longitude
Inclination (degrees)
Orbital Period (minutes)
Azimuth
Elevation
Range (km)
Doppler Factor

Next 0 passes for location: London (51.5072 / 0.1276)

No passes found over London.
CZ-2C R/B